Clayton Lake, ME

10:23 AM EDT on March 26, 2017 (GMT -0400)
Clayton Lake

Weather History for K40B - January, 2013

Change the Weather History Date:

Saturday, January 26, 2013

  Actual Average Record
Temperature  
Mean Temperature -4 °F -  
Max Temperature 9 °F 18 °F 38 °F (2016)
Min Temperature -17 °F -6 °F -36 °F (2004)
Degree Days  
Heating Degree Days 70    
Moisture  
Dew Point -9 °F    
Average Humidity 72    
Maximum Humidity 83    
Minimum Humidity 61    
Precipitation  
Precipitation 0.03 in - - ()
Sea Level Pressure  
Sea Level Pressure 30.08 in    
Wind  
Wind Speed 2 mph (North)    
Max Wind Speed 6 mph    
Max Gust Speed 16 mph    
Averages and records for this station are not official NWS values.
T = Trace of Precipitation, MM = Missing Value Source: NWS Daily Summary

Daily Weather History Graph

Daily Weather History Graph

Search for Another Location

Airport or City:

Trip Planner

Search our weather history database for the weather conditions in past years. The results will help you decide how hot, cold, wet, or windy it might be!

Date:

Astronomy

Jan. 26, 2013 Rise Set
Actual Time 7:08 AM EST 4:33 PM EST
Civil Twilight 6:35 AM EST 5:06 PM EST
Nautical Twilight 5:59 AM EST 5:42 PM EST
Astronomical Twilight 5:23 AM EST 6:18 PM EST
Moon 4:27 PM EST 6:22 AM EST
Length of Visible Light 10h 30m
Length of Day
9h 24m
Full, 100% of the Moon is Illuminated
Jan 26
Full
Jan 26
Full
Feb 3
Last Quarter
Feb 10
New
Feb 17
First Quarter

Hourly Weather History & Observations

Time (EST) Temp. Windchill Dew Point Humidity Pressure Visibility Wind Dir Wind Speed Gust Speed Precip Events Conditions
12:25 AM -4.7 °F -13.2 °F -10.7 °F 76% 30.09 in - Variable 3.5 mph - N/A   Unknown
1:25 AM -4.4 °F - -10.1 °F 76% 30.10 in - Calm Calm - N/A   Unknown
2:25 AM -6.2 °F - -10.7 °F 81% 30.09 in - Calm Calm - N/A   Unknown
3:25 AM -8.1 °F - -12.3 °F 82% 30.10 in - Calm Calm - N/A   Unknown
4:25 AM -11.7 °F - -15.7 °F 83% 30.10 in - Calm Calm - N/A   Unknown
5:25 AM -15.3 °F - -19.7 °F 81% 30.11 in - Calm Calm - 0.00 in   Unknown
6:25 AM -17.5 °F - -22.2 °F 79% 30.11 in - Calm Calm - N/A   Unknown
7:25 AM -16.8 °F - -21.1 °F 81% 30.12 in - Calm Calm - 0.00 in   Unknown
8:27 AM -9.2 °F -18.4 °F -14.1 °F 79% 30.11 in - Variable 3.5 mph - 0.01 in   Unknown
9:25 AM -2.4 °F -12.7 °F -9.2 °F 73% 30.12 in - Variable 4.6 mph - 0.02 in   Unknown
10:25 AM 3.2 °F -6.2 °F -5.6 °F 67% 30.10 in - Variable 4.6 mph - N/A   Unknown
11:25 AM 8.1 °F 1.4 °F -2.6 °F 62% 30.08 in - Variable 3.5 mph 12.7 mph N/A   Unknown
12:26 PM 7.9 °F -2.2 °F -2.9 °F 61% 30.06 in - Variable 5.8 mph 16.1 mph N/A   Unknown
1:25 PM 7.9 °F -2.2 °F -2.7 °F 62% 30.06 in - Variable 5.8 mph 12.7 mph N/A   Unknown
2:25 PM 7.9 °F - -2.6 °F 62% 30.05 in - Calm Calm - N/A   Unknown
3:25 PM 7.7 °F 1.0 °F -2.9 °F 62% 30.05 in - Variable 3.5 mph - N/A   Unknown
4:25 PM 6.8 °F -2.0 °F -4.0 °F 61% 29.91 in - Variable 4.6 mph - N/A   Unknown
5:25 PM 3.2 °F -6.2 °F -4.9 °F 69% 30.06 in - Variable 4.6 mph - N/A   Unknown
6:25 PM 1.6 °F -8.0 °F -6.2 °F 70% 30.07 in - Variable 4.6 mph - N/A   Unknown
7:25 PM 1.6 °F -8.0 °F -6.5 °F 69% 30.06 in - Variable 4.6 mph - 0.00 in   Unknown
8:25 PM 1.4 °F -6.2 °F -6.0 °F 71% 30.06 in - Variable 3.5 mph - N/A   Unknown
9:25 PM 2.5 °F -5.0 °F -5.1 °F 71% 30.06 in - Variable 3.5 mph - N/A   Unknown
10:30 PM 2.3 °F -5.2 °F -5.1 °F 71% 30.08 in - Variable 3.5 mph - N/A   Unknown
11:25 PM -0.4 °F - -6.3 °F 76% 30.11 in - Calm Calm - N/A   Unknown